TimeEDT,TemperatureF,Dew PointF,Humidity,Sea Level PressureIn,VisibilityMPH,Wind Direction,Wind SpeedMPH,Gust SpeedMPH,PrecipitationIn,Events,Conditions,WindDirDegrees,DateUTC
12:53 AM,75.0,70.0,84,29.89,10.0,SSW,3.5,-,N/A,,Clear,210,2013-07-08 04:53:00
1:53 AM,73.9,70.0,87,29.90,10.0,WSW,5.8,-,N/A,,Clear,240,2013-07-08 05:53:00
2:53 AM,75.9,72.0,87,29.90,10.0,Calm,Calm,-,N/A,,Clear,0,2013-07-08 06:53:00
3:53 AM,75.0,72.0,90,29.89,10.0,Calm,Calm,-,N/A,,Mostly Cloudy,0,2013-07-08 07:53:00
4:53 AM,73.0,71.1,93,29.89,10.0,Calm,Calm,-,N/A,,Clear,0,2013-07-08 08:53:00
5:53 AM,75.0,72.0,90,29.90,10.0,Calm,Calm,-,N/A,,Clear,0,2013-07-08 09:53:00
6:53 AM,77.0,73.0,88,29.91,10.0,West,4.6,-,N/A,,Clear,270,2013-07-08 10:53:00
7:53 AM,80.1,73.0,79,29.91,10.0,WNW,3.5,-,N/A,,Clear,290,2013-07-08 11:53:00
8:53 AM,82.0,72.0,71,29.91,10.0,Variable,5.8,-,N/A,,Clear,0,2013-07-08 12:53:00
9:23 AM,82.4,73.4,74,29.93,10.0,North,6.9,-,N/A,,Mostly Cloudy,10,2013-07-08 13:23:00
9:53 AM,75.9,70.0,82,29.94,10.0,NE,9.2,-,N/A,,Overcast,40,2013-07-08 13:53:00
10:26 AM,78.8,69.8,74,29.96,10.0,NE,8.1,-,N/A,,Scattered Clouds,50,2013-07-08 14:26:00
10:53 AM,77.0,69.1,76,29.95,10.0,NNE,12.7,-,N/A,,Clear,20,2013-07-08 14:53:00
11:33 AM,75.2,69.8,83,29.97,8.0,NNE,9.2,-,N/A,,Mostly Cloudy,30,2013-07-08 15:33:00
11:53 AM,73.9,68.0,82,29.96,9.0,NNE,9.2,-,N/A,,Overcast,30,2013-07-08 15:53:00
12:53 PM,75.9,68.0,76,29.97,10.0,ENE,10.4,-,N/A,,Mostly Cloudy,60,2013-07-08 16:53:00
1:51 PM,73.4,66.2,78,29.99,10.0,NE,10.4,-,N/A,,Mostly Cloudy,50,2013-07-08 17:51:00
1:53 PM,73.0,66.9,81,29.97,10.0,NE,8.1,-,N/A,,Mostly Cloudy,50,2013-07-08 17:53:00
2:53 PM,75.0,66.9,76,29.96,10.0,NE,9.2,-,N/A,,Scattered Clouds,50,2013-07-08 18:53:00
3:53 PM,75.0,66.9,76,29.97,10.0,NE,9.2,-,N/A,,Partly Cloudy,50,2013-07-08 19:53:00
4:53 PM,73.0,64.9,76,29.96,10.0,ENE,8.1,-,N/A,,Clear,60,2013-07-08 20:53:00
5:53 PM,71.1,64.0,78,29.98,10.0,NNE,5.8,-,N/A,,Scattered Clouds,30,2013-07-08 21:53:00
6:11 PM,69.8,62.6,78,29.99,10.0,Variable,4.6,-,N/A,,Mostly Cloudy,0,2013-07-08 22:11:00
6:53 PM,68.0,62.1,81,29.99,10.0,North,5.8,-,N/A,,Overcast,10,2013-07-08 22:53:00
7:53 PM,66.9,62.1,84,30.01,10.0,North,8.1,-,N/A,,Overcast,360,2013-07-08 23:53:00
8:02 PM,66.2,62.6,88,30.02,6.0,NE,5.8,-,0.03,Rain,Light Rain,50,2013-07-09 00:02:00
8:07 PM,66.2,62.6,88,30.02,1.8,East,5.8,-,0.12,Rain,Heavy Rain,90,2013-07-09 00:07:00
8:25 PM,64.4,62.6,94,30.02,2.5,ESE,4.6,-,0.29,Rain,Rain,110,2013-07-09 00:25:00
8:34 PM,66.2,64.4,94,30.02,5.0,NE,5.8,-,0.31,Rain,Light Rain,50,2013-07-09 00:34:00
8:41 PM,66.2,64.4,94,30.02,6.0,Variable,4.6,-,0.31,Rain,Light Rain,0,2013-07-09 00:41:00
8:50 PM,64.4,62.6,94,30.04,8.0,North,4.6,-,0.31,Rain,Light Rain,10,2013-07-09 00:50:00
8:53 PM,64.9,63.0,93,30.03,8.0,NNW,6.9,-,0.32,Rain,Light Rain,340,2013-07-09 00:53:00
9:01 PM,64.4,62.6,94,30.05,1.5,North,5.8,-,0.19,Rain,Heavy Rain,350,2013-07-09 01:01:00
9:08 PM,64.4,62.6,94,30.04,0.8,NE,8.1,-,0.44,Rain,Heavy Rain,40,2013-07-09 01:08:00
9:14 PM,64.4,62.6,94,30.04,1.0,NNE,8.1,-,0.58,Rain,Heavy Rain,30,2013-07-09 01:14:00
9:23 PM,64.4,62.6,94,30.03,1.8,NE,9.2,-,0.70,Rain,Heavy Rain,40,2013-07-09 01:23:00
9:28 PM,64.4,62.6,94,30.04,3.0,NE,5.8,-,0.70,Rain,Light Rain,40,2013-07-09 01:28:00
9:40 PM,64.4,62.6,94,30.05,10.0,Calm,Calm,-,0.71,,Overcast,0,2013-07-09 01:40:00
9:51 PM,64.4,62.6,94,30.05,10.0,Calm,Calm,-,0.71,,Overcast,0,2013-07-09 01:51:00
9:53 PM,64.0,62.1,93,30.04,10.0,NNW,3.5,-,0.71,,Overcast,330,2013-07-09 01:53:00
10:53 PM,64.9,62.1,90,30.05,10.0,North,3.5,-,N/A,,Overcast,360,2013-07-09 02:53:00
11:53 PM,64.9,62.1,90,30.05,10.0,NNE,3.5,-,N/A,,Overcast,20,2013-07-09 03:53:00